[[{"header":{"parameterUnit":"m.s-1","parameterCategory":1,"la1":30.2992,"la2":30.254,"lo1":-89.0895,"lo2":-89.0443,"dy":0.0025,"dx":0.0025,"nx":19,"ny":19,"refTime":"2026-05-01T03:00:00:Z","depth":0,"parameterNumber":2,"parameterNumberName":"U-component_of_WINDS"},"data":[0,0,0,-2.8282,-2.8286,-2.8438,-2.8438,-2.8646,-2.8648,0,0,0,0,0,0,0,0,0,0,0,-2.8247,-2.8249,-2.8282,-2.8286,-2.8438,-2.8438,-2.8645,-2.8648,0,0,0,0,0,0,0,0,0,0,0,-2.8247,-2.8249,-2.8251,-2.8287,-2.8437,-2.8438,-2.8645,-2.8525,0,0,0,0,0,0,0,0,0,0,-2.8376,-2.8354,-2.8248,-2.8251,-2.8288,-2.8437,-2.8438,-2.8519,-2.8533,-2.8584,0,-2.8632,0,-2.8644,-2.8663,-2.8664,0,0,0,-2.8279,-2.8342,-2.8374,-2.8251,-2.8289,-2.8437,-2.8367,-2.8527,-2.8542,-2.8602,-2.8635,-2.8643,-2.8647,-2.8664,-2.8665,-2.8986,-2.8988,0,0,-2.827,-2.828,-2.8364,-2.8385,-2.8364,-2.8362,-2.8372,-2.8536,-2.8573,-2.8636,-2.8647,-2.865,-2.8666,-2.8667,-2.8984,-2.8986,0,0,0,-2.8251,-2.8274,-2.8302,-2.8377,-2.8403,-2.8367,-2.8378,-2.8565,-2.8574,-2.8649,-2.8653,-2.8667,-2.867,-2.8982,-2.8985,-2.9089,0,0,0,-2.8246,-2.8263,-2.8299,-2.8306,-2.84,-2.8486,-2.8404,-2.8562,-2.858,-2.8652,-2.8667,-2.8672,-2.898,-2.8984,-2.9081,-2.9137,0,0,0,-2.8234,-2.8262,-2.8287,-2.8306,-2.8372,-2.8484,-2.8501,-2.8566,-2.8583,-2.8664,-2.8672,-2.8979,-2.8983,-2.9075,-2.9126,-2.9226,0,0,0,-2.8224,-2.8376,-2.8289,-2.8459,-2.8371,-2.8546,-2.85,-2.8629,-2.871,-2.8668,-2.898,-2.8985,-2.9073,-2.912,-2.9219,-2.9314,-2.9354,0,0,-2.8421,-2.84,-2.8499,-2.8426,-2.862,-2.8522,-2.873,-2.8794,-2.8792,-2.8921,-2.8929,-2.9084,-2.9125,-2.9225,-2.9567,-2.9599,0,0,0,-2.8565,-2.8637,-2.8686,-2.8764,-2.8817,-2.8867,-2.8899,-2.8922,-2.9031,-2.8861,-2.9144,-2.9169,-2.9227,-2.9272,-2.9299,-2.9349,-2.9005,-2.9005,-2.9004,-2.886,-2.8849,-2.9013,-2.9021,-2.9097,-2.9127,-2.9188,-2.9224,-2.919,-2.9257,-2.9297,-2.9507,-2.956,-2.958,-2.9632,-2.9343,-2.9344,-2.9344,-2.9344,-2.915,-2.9252,-2.9202,-2.9344,-2.9331,-2.945,-2.9483,-2.9455,-2.9563,-2.9476,-2.9526,-2.9435,-2.9615,-2.966,-2.9352,-2.9351,-2.935,-2.9349,-2.9348,-2.9346,-2.9393,-2.9418,-2.953,-2.9616,-2.9616,-2.9723,-2.9706,-2.969,-2.974,-2.9781,-2.9779,-2.9778,-2.9759,-2.976,-2.9761,-2.9762,-2.9762,-2.9763,-2.954,-2.9565,-2.9658,-2.9726,-2.9773,-2.9834,-2.9863,-2.9909,-2.9956,-2.9935,-2.9935,-2.9896,-2.9633,-2.957,-2.9774,-2.9772,-2.9771,-2.9769,-2.9769,-2.9845,-2.9773,-2.9916,-2.9964,-3.0042,-3.0129,-3.0104,-3.0199,-3.0234,-3.0287,-3.0235,-3.0043,-3.002,-2.9999,-2.9947,-3.0236,-3.0236,-3.0236,-3.0236,-3.0013,-2.9998,-3.0141,-3.0219,-3.0292,-3.0284,-3.0446,-3.0469,-3.0482,-3.0502,-3.0457,-3.0384,-3.0363,-3.0353,-3.0324,-3.0275,-3.0641,-3.0642,-3.0642,-3.0201,-3.0193,-3.0336,-3.0347,-3.0406,-3.0457,-3.0608,-3.0698,-3.0696,-3.0658,-3.0519,-3.0502,-3.0384,-3.0346,-3.0309,-3.0264,-3.0174,0,0]},{"header":{"parameterUnit":"m.s-1","parameterCategory":1,"la1":30.2992,"la2":30.254,"lo1":-89.0895,"lo2":-89.0443,"dy":0.0025,"dx":0.0025,"nx":19,"ny":19,"refTime":"2026-05-01T03:00:00:Z","depth":0,"parameterNumber":3,"parameterNumberName":"V-component_of_WINDS"},"data":[0,0,0,-9.5174,-9.5181,-9.5497,-9.5498,-9.592,-9.5924,0,0,0,0,0,0,0,0,0,0,0,-9.5095,-9.5099,-9.5173,-9.5182,-9.5497,-9.5498,-9.5919,-9.5924,0,0,0,0,0,0,0,0,0,0,0,-9.5094,-9.5098,-9.5102,-9.5183,-9.5497,-9.5498,-9.5918,-9.5673,0,0,0,0,0,0,0,0,0,0,-9.5363,-9.5306,-9.5097,-9.5102,-9.5185,-9.5496,-9.5498,-9.566,-9.5688,-9.5786,0,-9.5881,0,-9.591,-9.5954,-9.5955,0,0,0,-9.5169,-9.5283,-9.5355,-9.5103,-9.5188,-9.5496,-9.5351,-9.5676,-9.5707,-9.5823,-9.5887,-9.5902,-9.5917,-9.5957,-9.5959,-9.6577,-9.658,0,0,-9.5152,-9.5159,-9.5334,-9.5376,-9.5333,-9.5341,-9.5361,-9.5694,-9.5763,-9.5888,-9.5911,-9.5924,-9.596,-9.5963,-9.6573,-9.6578,0,0,0,-9.511,-9.5148,-9.5211,-9.536,-9.5415,-9.5351,-9.5374,-9.5748,-9.5768,-9.5916,-9.5929,-9.5962,-9.5968,-9.657,-9.6575,-9.6758,0,0,0,-9.5099,-9.5123,-9.5204,-9.5212,-9.541,-9.5586,-9.542,-9.5745,-9.5782,-9.5927,-9.5962,-9.5972,-9.6566,-9.6572,-9.6744,-9.6843,0,0,0,-9.507,-9.512,-9.5171,-9.5211,-9.5348,-9.5581,-9.562,-9.5753,-9.5791,-9.5956,-9.5973,-9.6563,-9.6571,-9.6733,-9.6823,-9.701,0,0,0,-9.5039,-9.5325,-9.5174,-9.5498,-9.5346,-9.5692,-9.5618,-9.5874,-9.6037,-9.5965,-9.6566,-9.6574,-9.6729,-9.6811,-9.6998,-9.7171,-9.7244,0,0,-9.5404,-9.537,-9.556,-9.5434,-9.581,-9.5643,-9.6045,-9.6184,-9.6189,-9.6446,-9.6461,-9.6749,-9.6822,-9.7008,-9.7642,-9.77,0,0,0,-9.5678,-9.5815,-9.5913,-9.6071,-9.6187,-9.6294,-9.6371,-9.6423,-9.6641,-9.6325,-9.6865,-9.6908,-9.7017,-9.7099,-9.7149,-9.7242,-9.6612,-9.6611,-9.6611,-9.6206,-9.6202,-9.6517,-9.6552,-9.6705,-9.6783,-9.6906,-9.6989,-9.6936,-9.7064,-9.7141,-9.7527,-9.7624,-9.7661,-9.7759,-9.7229,-9.723,-9.7231,-9.7231,-9.6743,-9.6938,-9.6865,-9.7144,-9.7137,-9.737,-9.7455,-9.7411,-9.7625,-9.7468,-9.7563,-9.7395,-9.7725,-9.781,-9.7245,-9.7243,-9.7241,-9.7239,-9.7238,-9.7092,-9.7185,-9.7245,-9.7474,-9.7649,-9.7671,-9.7883,-9.7866,-9.7851,-9.7945,-9.8026,-9.8023,-9.8021,-9.7985,-9.7986,-9.7987,-9.7989,-9.799,-9.799,-9.7431,-9.7493,-9.7675,-9.7824,-9.7923,-9.8052,-9.8133,-9.823,-9.8332,-9.8303,-9.8304,-9.824,-9.7757,-9.7638,-9.8011,-9.8008,-9.8005,-9.8003,-9.8001,-9.7982,-9.7855,-9.8137,-9.8238,-9.8411,-9.8587,-9.8563,-9.8762,-9.8838,-9.8943,-9.8859,-9.8504,-9.8466,-9.8426,-9.8328,-9.8857,-9.8857,-9.8857,-9.8857,-9.8278,-9.8258,-9.8544,-9.8706,-9.8862,-9.887,-9.9187,-9.9252,-9.9298,-9.9345,-9.9265,-9.9132,-9.9092,-9.9078,-9.9024,-9.8932,-9.9604,-9.9605,-9.9605,-9.8618,-9.8613,-9.8888,-9.8936,-9.907,-9.9184,-9.9482,-9.9669,-9.9693,-9.9635,-9.9382,-9.935,-9.9135,-9.9065,-9.9003,-9.8921,-9.8751,0,0]}]]